Weather History for Keene, NH

Change the Weather History Date:

Thursday, November 8, 2012

  Actual Average Record
Temperature  
Mean Temperature 36 °F -  
Max Temperature 39 °F 49 °F 70 °F (1938)
Min Temperature 32 °F 31 °F 9 °F (1931)
Degree Days  
Heating Degree Days 30    
Moisture  
Dew Point 25 °F    
Average Humidity 65    
Maximum Humidity 81    
Minimum Humidity 48    
Precipitation  
Precipitation 0.01 in - - ()
Sea Level Pressure  
Sea Level Pressure 29.79 in    
Wind  
Wind Speed 15 mph (North)    
Max Wind Speed 23 mph    
Max Gust Speed 31 mph    
Visibility 10 miles    
Events      
Averages and records for this station are not official NWS values.
T = Trace of Precipitation, MM = Missing Value Source: NWS Daily Summary

Daily Weather History Graph

Daily Weather History Graph

Search for Another Location

Airport:

Trip Planner

Search our weather history database for the weather conditions in past years. The results will help you decide how hot, cold, wet, or windy it might be!

Date:

Astronomy

Nov. 08, 2012 Rise Set
Actual Time 6:32 AM EST 4:32 PM EST
Civil Twilight 6:02 AM EST 5:02 PM EST
Nautical Twilight 5:28 AM EST 5:36 PM EST
Astronomical Twilight 4:55 AM EST 6:09 PM EST
Moon 12:16 AM EST (11/8) 1:19 PM EST (11/8)
Length of Visible Light 10h 59m
Length of Day
9h 59m
Waning Crescent, 33% of the Moon is Illuminated
Nov 8
Waning Crescent
Nov 13
New
Nov 20
First Quarter
Nov 28
Full
Dec 6
Last Quarter

Hourly Weather History & Observations

Time (EST) Temp. Windchill Dew Point Humidity Pressure Visibility Wind Dir Wind Speed Gust Speed Precip Events Conditions
12:15 AM 35.6 °F 27.1 °F 17.6 °F 48% 29.83 in 10.0 mi North 12.7 mph - N/A   Overcast
12:35 AM 35.6 °F 26.6 °F 17.6 °F 48% 29.83 in 10.0 mi North 13.8 mph - N/A   Overcast
12:55 AM 35.6 °F 27.1 °F 17.6 °F 48% 29.83 in 10.0 mi North 12.7 mph - N/A   Overcast
1:15 AM 35.6 °F 24.5 °F 17.6 °F 48% 29.82 in 10.0 mi NNE 20.7 mph 26.5 mph N/A   Overcast
1:35 AM 35.6 °F 26.2 °F 21.2 °F 56% 29.82 in 10.0 mi North 15.0 mph 21.9 mph N/A   Overcast
1:55 AM 35.6 °F 27.5 °F 19.4 °F 52% 29.81 in 10.0 mi North 11.5 mph 20.7 mph N/A   Overcast
2:15 AM 35.6 °F 27.1 °F 17.6 °F 48% 29.81 in 10.0 mi North 12.7 mph - N/A   Overcast
2:35 AM 35.6 °F 27.5 °F 19.4 °F 52% 29.80 in 10.0 mi North 11.5 mph 17.3 mph N/A   Mostly Cloudy
2:55 AM 35.6 °F 28.6 °F 17.6 °F 48% 29.80 in 10.0 mi North 9.2 mph - N/A   Mostly Cloudy
3:15 AM 35.6 °F 28.6 °F 19.4 °F 52% 29.80 in 10.0 mi North 9.2 mph 17.3 mph N/A   Overcast
3:35 AM 35.6 °F 25.5 °F 21.2 °F 56% 29.80 in 10.0 mi NNE 17.3 mph 24.2 mph N/A   Overcast
3:55 AM 33.8 °F 23.9 °F 23.0 °F 65% 29.80 in 10.0 mi North 15.0 mph 21.9 mph N/A   Overcast
4:15 AM 33.8 °F 22.8 °F 24.8 °F 70% 29.80 in 8.0 mi North 18.4 mph 24.2 mph N/A   Overcast
4:35 AM 32.0 °F 22.5 °F 24.8 °F 75% 29.80 in 10.0 mi North 12.7 mph 21.9 mph N/A   Overcast
4:55 AM 32.0 °F 21.6 °F 24.8 °F 75% 29.79 in 10.0 mi North 15.0 mph - N/A   Overcast
5:35 AM 33.8 °F 24.3 °F 23.0 °F 65% 29.79 in 10.0 mi North 13.8 mph - N/A   Overcast
5:55 AM 33.8 °F 24.3 °F 23.0 °F 65% 29.78 in 9.0 mi North 13.8 mph 24.2 mph N/A   Overcast
6:15 AM 33.8 °F 24.8 °F 24.8 °F 70% 29.78 in 8.0 mi NNE 12.7 mph 18.4 mph N/A   Overcast
6:35 AM 33.8 °F 25.8 °F 24.8 °F 70% 29.78 in 10.0 mi NNE 10.4 mph - N/A   Overcast
6:55 AM 33.8 °F 23.9 °F 23.0 °F 65% 29.78 in 10.0 mi North 15.0 mph 20.7 mph N/A   Overcast
7:15 AM 33.8 °F 24.3 °F 21.2 °F 60% 29.78 in 10.0 mi North 13.8 mph - N/A   Overcast
7:35 AM 35.6 °F 26.2 °F 21.2 °F 56% 29.78 in 10.0 mi North 15.0 mph 21.9 mph N/A   Overcast
7:55 AM 35.6 °F 25.5 °F 21.2 °F 56% 29.78 in 10.0 mi North 17.3 mph 23.0 mph N/A   Overcast
8:15 AM 35.6 °F 24.8 °F 21.2 °F 56% 29.78 in 10.0 mi North 19.6 mph 28.8 mph N/A   Overcast
8:35 AM 35.6 °F 24.2 °F 21.2 °F 56% 29.78 in 10.0 mi North 21.9 mph 25.3 mph N/A   Overcast
8:55 AM 37.4 °F 27.8 °F 21.2 °F 52% 29.78 in 10.0 mi North 17.3 mph 24.2 mph N/A   Mostly Cloudy
9:16 AM 37.4 °F 26.9 °F 21.2 °F 52% 29.77 in 10.0 mi North 20.7 mph 27.6 mph N/A   Mostly Cloudy
9:35 AM 37.4 °F 27.5 °F 21.2 °F 52% 29.77 in 10.0 mi North 18.4 mph 24.2 mph N/A   Mostly Cloudy
9:55 AM 37.4 °F 27.2 °F 23.0 °F 56% 29.78 in 10.0 mi North 19.6 mph 25.3 mph N/A   Overcast
10:16 AM 37.4 °F 27.8 °F 23.0 °F 56% 29.77 in 10.0 mi North 17.3 mph 25.3 mph N/A   Overcast
10:35 AM 37.4 °F 26.6 °F 23.0 °F 56% 29.77 in 10.0 mi North 21.9 mph 28.8 mph N/A   Overcast
10:55 AM 37.4 °F 27.2 °F 23.0 °F 56% 29.76 in 10.0 mi North 19.6 mph 28.8 mph N/A   Overcast
11:15 AM 37.4 °F 26.9 °F 24.8 °F 60% 29.75 in 10.0 mi North 20.7 mph 31.1 mph N/A   Overcast
11:35 AM 39.2 °F 29.0 °F 24.8 °F 56% 29.75 in 10.0 mi North 21.9 mph 31.1 mph N/A   Overcast
11:55 AM 37.4 °F 26.9 °F 24.8 °F 60% 29.74 in 10.0 mi North 20.7 mph 29.9 mph N/A   Overcast
12:15 PM 39.2 °F 30.2 °F 26.6 °F 61% 29.74 in 10.0 mi North 17.3 mph 26.5 mph N/A   Overcast
12:35 PM 39.2 °F 29.3 °F 26.6 °F 61% 29.74 in 10.0 mi North 20.7 mph 28.8 mph N/A   Overcast
12:55 PM 39.2 °F 30.5 °F 26.6 °F 61% 29.74 in 10.0 mi North 16.1 mph 21.9 mph N/A   Overcast
1:15 PM 37.4 °F 26.9 °F 26.6 °F 65% 29.74 in 10.0 mi North 20.7 mph 25.3 mph N/A   Overcast
1:35 PM 37.4 °F 27.8 °F 26.6 °F 65% 29.74 in 10.0 mi North 17.3 mph 24.2 mph N/A   Overcast
1:55 PM 37.4 °F 28.5 °F 26.6 °F 65% 29.75 in 10.0 mi North 15.0 mph 31.1 mph N/A   Overcast
2:15 PM 37.4 °F 26.4 °F 26.6 °F 65% 29.74 in 10.0 mi North 23.0 mph 26.5 mph N/A   Overcast
2:35 PM 37.4 °F 27.8 °F 28.4 °F 70% 29.75 in 10.0 mi North 17.3 mph 23.0 mph N/A   Overcast
3:15 PM 35.6 °F 25.9 °F 28.4 °F 75% 29.77 in 10.0 mi North 16.1 mph 21.9 mph N/A   Overcast
3:35 PM 37.4 °F 27.8 °F 28.4 °F 70% 29.77 in 10.0 mi North 17.3 mph 23.0 mph N/A   Overcast
3:55 PM 35.6 °F 25.9 °F 28.4 °F 75% 29.78 in 10.0 mi North 16.1 mph - N/A   Overcast
4:15 PM 35.6 °F 25.5 °F 28.4 °F 75% 29.78 in 9.0 mi North 17.3 mph 23.0 mph N/A   Overcast
4:35 PM 35.6 °F 27.1 °F 30.2 °F 81% 29.79 in 10.0 mi North 12.7 mph 19.6 mph N/A   Overcast
4:55 PM 35.6 °F 26.6 °F 30.2 °F 81% 29.79 in 10.0 mi North 13.8 mph - N/A   Overcast
5:15 PM 35.6 °F 27.1 °F 30.2 °F 81% 29.80 in 9.0 mi North 12.7 mph - N/A   Overcast
5:35 PM 35.6 °F 27.1 °F 30.2 °F 81% 29.81 in 10.0 mi North 12.7 mph - 0.01 in   Overcast
5:55 PM 35.6 °F 26.6 °F 30.2 °F 81% 29.81 in 10.0 mi North 13.8 mph 18.4 mph 0.01 in   Overcast
6:15 PM 35.6 °F 26.2 °F 30.2 °F 81% 29.81 in 10.0 mi North 15.0 mph - N/A   Overcast
6:35 PM 35.6 °F 26.6 °F 30.2 °F 81% 29.82 in 10.0 mi North 13.8 mph - N/A   Overcast
6:55 PM 35.6 °F 27.5 °F 30.2 °F 81% 29.82 in 10.0 mi North 11.5 mph 17.3 mph N/A   Overcast
7:15 PM 35.6 °F 25.5 °F 30.2 °F 81% 29.82 in 10.0 mi North 17.3 mph 20.7 mph N/A   Overcast
7:35 PM 37.4 °F 28.5 °F 28.4 °F 70% 29.83 in 10.0 mi North 15.0 mph 23.0 mph N/A   Overcast
7:55 PM 37.4 °F 27.8 °F 28.4 °F 70% 29.83 in 10.0 mi North 17.3 mph 24.2 mph N/A   Overcast
8:15 PM 35.6 °F 25.9 °F 28.4 °F 75% 29.83 in 10.0 mi North 16.1 mph 21.9 mph N/A   Overcast
8:35 PM 35.6 °F 25.9 °F 30.2 °F 81% 29.83 in 10.0 mi North 16.1 mph 21.9 mph N/A   Overcast
8:55 PM 35.6 °F 26.6 °F 28.4 °F 75% 29.84 in 10.0 mi North 13.8 mph 23.0 mph N/A   Overcast
9:15 PM 37.4 °F 27.5 °F 28.4 °F 70% 29.84 in 10.0 mi North 18.4 mph 23.0 mph N/A   Overcast
9:35 PM 37.4 °F 27.8 °F 28.4 °F 70% 29.83 in 10.0 mi North 17.3 mph 23.0 mph N/A   Overcast
9:55 PM 37.4 °F 28.9 °F 30.2 °F 75% 29.84 in 10.0 mi North 13.8 mph 21.9 mph N/A   Overcast
10:15 PM 37.4 °F 29.3 °F 30.2 °F 75% 29.84 in 10.0 mi North 12.7 mph 18.4 mph N/A   Overcast
10:35 PM 37.4 °F 29.3 °F 30.2 °F 75% 29.84 in 10.0 mi North 12.7 mph - N/A   Overcast
10:55 PM 37.4 °F 31.4 °F 28.4 °F 70% 29.84 in 10.0 mi NNW 8.1 mph 16.1 mph N/A   Overcast
11:15 PM 37.4 °F 30.8 °F 28.4 °F 70% 29.84 in 10.0 mi NNW 9.2 mph - N/A   Overcast
11:35 PM 37.4 °F 30.8 °F 28.4 °F 70% 29.84 in 10.0 mi North 9.2 mph - N/A   Overcast
11:55 PM 37.4 °F 29.8 °F 28.4 °F 70% 29.84 in 10.0 mi North 11.5 mph - N/A   Overcast